Regional Weather Roundup
Issued by NWS

Home | Current Version | Previous Version | Text Only | Print | Product List | Glossary On
Versions: 1 2 3 4 5 6 7 8 9 10 11 12 13 14 15 16 17 18 19 20 21 22 23 24 25 26 27 28 29 30 31 32 33 34 35 36 37 38 39 40 41 42 43 44 45 46 47 48 49 50
000
ASUS44 KFWD 282315
RWRTX
NORTH TEXAS HOURLY WEATHER ROUNDUP
NATIONAL WEATHER SERVICE FORT WORTH TX
600 PM CDT SUN MAY 28 2017

NOTE: "FAIR" INDICATES FEW OR NO CLOUDS BELOW 12,000 FEET WITH NO
SIGNIFICANT WEATHER AND/OR OBSTRUCTIONS TO VISIBILITY.

TXZ118-119-290000-
DALLAS/FORT WORTH METROPLEX

CITY           SKY/WX    TMP DP  RH WIND       PRES   REMARKS
DFW AIRPORT    CLOUDY    80  69  69 N9        29.91F
DALLAS LOVE    CLOUDY    78  67  68 N12       29.92S
FTW MEACHAM    MOSUNNY   79  68  69 N5        29.93F
DAL-EXECUTIVE  CLOUDY    76  69  79 N9        29.91S
FTW-ALLIANCE   CLOUDY    77  68  73 NE3       29.91F
FTW-NAS-JRB    CLOUDY    79  66  64 N8        29.94F
FTW-SPINKS     MOSUNNY   79  66  65 N13       29.95F
ARLINGTON      PTSUNNY   78  67  68 N15       29.92F
GRAND PRAIRIE  PTSUNNY   77  70  78 N12       29.94R
ADDISON        PTSUNNY   75  68  78 NW8       29.93
MESQUITE       CLOUDY    73  70  88 N6        29.91F
LANCASTER      CLOUDY    74  69  83 NE3       29.92S
$$

TXZ091>094-102>105-117-120-121-131>134-290000-
NORTH CENTRAL TEXAS

CITY           SKY/WX    TMP DP  RH WIND       PRES   REMARKS
SHRMAN/DENISON CLOUDY    80  64  57 N10G16    29.93F
GAINESVILLE    MOSUNNY   80  62  53 N9        29.96F
BOWIE          CLOUDY    81  60  50 N10G16    29.96F
BRIDGEPORT     CLOUDY    78  64  62 W3        29.98F
DECATUR        CLOUDY    77  64  65 N7        29.95F
DENTON         CLOUDY    76  69  79 NE8       29.89F
MCKINNEY       CLOUDY    75  72  90 NE6       29.89F
BONHAM         CLOUDY    77  66  69 N6        29.92F
GREENVILLE     CLOUDY    75  70  83 NE5       29.90F
ROCKWALL       CLOUDY    75  70  84 N12       29.92F
TERRELL        CLOUDY    73  69  87 N9        29.91F
WAXAHACHIE     CLOUDY    73  71  92 N5        29.93R
CLEBURNE       PTSUNNY   75  70  83 N16       29.95S
GRANBURY       CLOUDY    78  65  63 N14G20    29.93F
$$

TXZ083>090-098>101-113>116-127>130-139>142-154-155-290000-
WESTERN NORTH TEXAS

CITY           SKY/WX    TMP DP  RH WIND       PRES   REMARKS
WICHITA FALLS  SUNNY     84  56  38 N14       29.98F
WF-KICKAPOO    MOSUNNY   85  55  36 N13G20    30.01S
VERNON         SUNNY     88  26  11 N10       30.02S
ABILENE        PTSUNNY   72  63  73 N8        29.99F THUNDER
ABILENE-DYESS  MOSUNNY   75  60  59 N9        30.00R
GRAHAM         CLOUDY    78  60  53 N3        29.97F
BRECKENRIDGE   CLOUDY    76  61  59 CALM      29.98F HAZE
CISCO          CLOUDY    73  63  68 NE9G17    29.98F
EASTLAND       CLOUDY    74  63  69 NE6       29.98F
MINERAL WELLS  CLOUDY    76  65  68 NE9       29.93F
STEPHENVILLE   CLOUDY    73  65  76 N9        29.99F
COMANCHE       CLOUDY    73  66  78 NE7       30.01R THUNDER
BROWNWOOD      CLOUDY    73  64  73 NE7       30.00S
COLEMAN        CLOUDY    79  60  52 NE17G23   29.98F
$$

TXZ143>147-156>162-174-175-290000-
CENTRAL TEXAS

CITY           SKY/WX    TMP DP  RH WIND       PRES   REMARKS
WACO           CLOUDY    79  71  76 N14       29.88F
WACO-TSTC      PTSUNNY   79  72  78 N13       29.88R
WACO-MCGREGOR  CLOUDY    78  71  79 N13       29.90S
HILLSBORO      CLOUDY    77  71  84 N20       29.91S
CORSICANA      CLOUDY    79  71  76 N14G23    29.87F
MEXIA          CLOUDY    79  73  80 N14G23    29.85F
HEARNE         CLOUDY    88  76  67 SE5       29.83F HX  98
CAMERON        PTSUNNY   87  74  64 SW5       29.82F HX  95
TEMPLE         CLOUDY    75  73  94 N9        29.88S
KILLEEN        CLOUDY    76  71  85 N15       29.91R
KILLEEN-SKYLRK CLOUDY    77  72  84 N12       29.91R
FORT HOOD      CLOUDY    76  70  84 N12       29.88S
HAMILTON       CLOUDY    76  68  75 N14       29.97R
LAMPASAS       CLOUDY    76  72  87 N6        29.92S
$$

TXZ095>097-106>112-122>126-135>138-148>153-164>167-290000-
EAST TEXAS

CITY           SKY/WX    TMP DP  RH WIND       PRES   REMARKS
PARIS          CLOUDY    75  66  73 E5        29.93F
SULPHUR SPRNGS CLOUDY    74  71  91 N12       29.89F
MOUNT PLEASANT CLOUDY    73  70  90 N9        29.88F
GILMER         RAIN      70  70  98 N5        29.87R
MINEOLA        CLOUDY    68  66  94 E3        29.90F
TYLER          CLOUDY    68  68 100 CALM      29.94R THUNDER
LONGVIEW       TSTM      67  66  97 SW12G18   29.94R
ATHENS         CLOUDY    72  68  88 NE6       29.87R
PALESTINE      CLOUDY    78  77  95 NW12G23   29.86S FOG
JACKSONVILLE   TSTM      72  71  96 W6        29.88R VSB 3/4
HENDERSON      TSTM      67  65  94 N15G30    29.97R VSB 1/4
CENTER         CLOUDY    85  75  72 CALM      29.83F HX  93
NACOGDOCHES    CLOUDY    82  75  78 E5        29.79F
LUFKIN         PTSUNNY   86  74  67 S12       29.79F HX  94
$$

SUPPLEMENTAL OBSERVATIONS (NWS FORT WORTH AREA)

CITY           SKY/WX    TMP DP  RH WIND       PRES   REMARKS
DENISON DAM      N/A     79  63  57 N14         N/A
CADDO GRASSLND   N/A     82  68  61 NE3         N/A
PAT MAYSE LAKE   N/A     79  72  78 NW9         N/A
GREENVILLE       N/A     73  68  83 NE1         N/A
CEDAR HILL       N/A     75  66  73 N6G14       N/A
LBJ GRASSLAND    N/A     79  64  61 N8          N/A
POSSUM KINGDOM   N/A     75  63  64 NE2G12      N/A
GRANBURY         N/A     79  66  65 N14         N/A
COMANCHE         N/A     72  66  83 NE12G24     N/A
MCGREGOR         N/A     79  70  73 VRB7G16     N/A
TEMPLE           N/A     77  73  88 NW3         N/A
LAKE LIMESTONE   N/A     82  77  83 CALM        N/A  HX  91
ATHENS           N/A     72  68  88 NE3G13      N/A
$$

SUPPLEMENTAL OBSERVATIONS (NWS NORMAN AREA)

CITY           SKY/WX    TMP DP  RH WIND       PRES   REMARKS
GOODLETT         N/A     84  37  18 N12       30.04S
ODELL            N/A     85  40  20 N9        30.03S
CROWELL          N/A     85  45  24 N9        30.02F
KNOX CITY        N/A     86  47  25 N10       30.01F
SEYMOUR          N/A     85  51  30 N8        30.00F
MILLERS CREEK    N/A     84  52  32 NE9         N/A
$$

SUPPLEMENTAL OBSERVATIONS (NWS SAN ANGELO AREA)

CITY           SKY/WX    TMP DP  RH WIND       PRES   REMARKS
WEINERT          N/A     83  53  34 N9        30.00F
HASKELL          N/A     82  50  32 NE13      29.99F
THROCKMORTON     N/A     81  58  45 NE6       29.99F
STAMFORD         N/A     80  57  45 N15       29.98F
CLYDE            N/A     70  64  80 NE8       30.01R
HAMBY            N/A     73  57  56 N7G16       N/A
IVIE RESERVOIR   N/A     79  63  57 NE13G25     N/A
COLORADO BEND    N/A     75  68  78 NE5G16      N/A
$$

SUPPLEMENTAL OBSERVATIONS (NWS SHREVEPORT AREA)

CITY           SKY/WX    TMP DP  RH WIND       PRES   REMARKS
CLARKSVILLE      N/A     73  70  88 NE2         N/A
TEXARKANA        N/A     73  68  83 N5          N/A
LINDEN           N/A     73  70  88 NE3G16      N/A
CADDO LAKE       N/A     72  70  94 SE3G13      N/A
GILMER           N/A     72  70  94 N5          N/A
HENDERSON        N/A     66  63  88 NE12G35     N/A
LUFKIN           N/A     86  73  66 MISG        N/A  HX  93
N SABINE NF      N/A     81  73  78 MISG        N/A
S SABINE NF      N/A     82  73  74 SE1         N/A
$$

SUPPLEMENTAL OBSERVATIONS ARE A COLLECTION OF AUTOMATED INSTRUMENTS
THAT ARE MAINTAINED BY A VARIETY OF FEDERAL AND STATE AGENCIES.
CERTAIN ELEMENTS...SUCH AS HUMIDITY VALUES AND SUSTAINED WIND
SPEEDS...MAY BE APPROXIMATED.





USA.gov is the U.S. government's official web portal to all federal, state and local government web resources and services.